Tracking 19242 objects as of 19-Sep-2018
HD Live streaming from Space Station
objects crossing your sky now

FENGYUN 1C DEB

Track FENGYUN 1C DEB now!
10-day predictions


NORAD ID: 31294
Int'l Code: 1999-025BPC
Perigee: 786.7 km
Apogee: 936.2 km
Inclination: 98.8 °
Period: 102.0 minutes
Semi major axis: 7232 km
RCS: 0.012 m2 (small)
Launch date: May 10, 1999
Source: People's Republic of China (PRC)
Launch site: Taiyaun Space Center, China (TSC)

Note: This is SATELLITE DEBRIS
aabbcc
Your satellite tracking list
Your tracking list is empty




NASA's NSSDC Master Catalog

Two Line Element Set (TLE):
1 31294U 99025BPC 18261.39084962 +.00000110 +00000-0 +80755-4 0  9994
2 31294 098.7702 319.0508 0103371 321.8249 037.5632 14.11489577595499
Source of the keplerian elements: AFSPC